Tracking 28126 objects as of 2-Oct-2023
HD Live streaming from Space Station
objects crossing your sky now

STARLINK-4680

Track STARLINK-4680 now!
10-day predictions
STARLINK-4680 is classified as:


NORAD ID: 53749
Int'l Code: 2022-107BB
Perigee: 545.7 km
Apogee: 548.0 km
Inclination: 53.2 °
Period: 95.4 minutes
Semi major axis: 6917 km
RCS: Unknown
Launch date: September 5, 2022
Source: United States (US)
Launch site: AIR FORCE EASTERN TEST RANGE (AFETR)
Your satellite tracking list
Your tracking list is empty




NASA's NSSDC Master Catalog

Two Line Element Set (TLE):
1 53749U 22107BB  23274.77520010 -.00000798  00000-0 -32016-4 0  9992
2 53749  53.2162 299.2739 0001666  93.5245 266.5938 15.08840718 59462
Source of the keplerian elements: AFSPC